Regional Weather Roundup
Issued by NWS Sioux Falls, SD

Home | Current Version | Previous Version | Text Only | Print | Product List | Glossary On
Versions: 1 2 3 4 5 6 7 8 9 10 11 12 13 14 15 16 17 18 19 20 21 22 23 24 25 26 27 28 29 30 31 32 33 34 35 36 37 38 39 40 41 42 43 44 45 46 47 48 49 50
000
ASUS43 KFSD 270610
RWRFSD

WEATHER ROUNDUP FOR SE SOUTH DAKOTA/SW MINNESOTA/NW IOWA
NATIONAL WEATHER SERVICE SIOUX FALLS SD
1200 AM CST FRI FEB 27 2015

NOTE: "FAIR" INDICATES FEW OR NO CLOUDS BELOW 12,000 FEET WITH NO
SIGNIFICANT WEATHER AND OR OBSTRUCTIONS TO VISIBILITY.


SDZ038>040-050-052>070-270700-
SOUTHEAST SOUTH DAKOTA

CITY           SKY/WX    TMP DP  RH WIND       PRES   REMARKS
CHAMBERLAIN    CLEAR     -6 -12  75 CALM      30.52S
6HR MIN TEMP:  -8; 6HR MAX TEMP:   9;

HURON          MOCLDY   -16 -20  82 W7        30.54F WCI -32
6HR MIN TEMP: -16; 6HR MAX TEMP:   2;

MADISON        FAIR      -8 -11  84 W7        30.48S WCI -22
MITCHELL       CLEAR     -3  -9  75 W5        30.56F WCI -13
6HR MIN TEMP:  -4; 6HR MAX TEMP:   5;

SIOUX FALLS    CLEAR     -6 -11  79 NW3       30.52S
6HR MIN TEMP:  -6; 6HR MAX TEMP:   2;

WINNER         FAIR       1  -9  62 SW5       30.49F WCI  -9
YANKTON        CLEAR     -2  -9  71 CALM      30.58S
$$

MNZ071-072-080-081-089-090-097-098-270700-
SOUTHWEST MINNESOTA

CITY           SKY/WX    TMP DP  RH WIND       PRES   REMARKS
FAIRMONT       CLEAR     -6 -11  77 W6        30.48S WCI -18
JACKSON        CLEAR     -6 -13  71 NW6       30.49S WCI -18
LUVERNE        CLEAR     -6 -11  77 W7        30.52S WCI -20
MARSHALL       CLEAR     -8 -15  71 W9        30.51F WCI -25
6HR MIN TEMP:  -8; 6HR MAX TEMP:   0;

MONTEVIDEO     CLEAR     -6 -11  77 NW5       30.53S WCI -17
PIPESTONE      PTCLDY    -6  -9  84 NW5       30.46S WCI -17
REDWOOD FALLS  CLEAR     -7 -12  79 W9        30.53R WCI -24
TRACY          CLEAR     -3  -9  74 NW7       30.50S WCI -16
WINDOM         CLEAR     -9 -13  84 CALM      30.49R
WORTHINGTON    CLEAR     21 -20  15 W9        30.49S WCI  11
$$

IAZ001>003-012>014-020>022-031-032-NEZ013-014-SDZ071-270700-
NORTHWEST IOWA

CITY           SKY/WX    TMP DP  RH WIND       PRES   REMARKS
CHEROKEE       CLEAR    -12 -15  85 CALM      30.55S
DENISON        CLEAR    -13 -18  77 CALM      30.53F
ESTHERVILLE    CLEAR    -13 -17  82 NW10      30.50S WCI -32
LE MARS        CLEAR     -6  -9  84 CALM      30.58R
ORANGE CITY    CLEAR     -8 -11  84 CALM      30.52S
SHELDON        CLEAR    -11 -17  77 W5        30.51F WCI -23
SIOUX CITY     CLEAR     -4  -9  79 NW7       30.59S WCI -18
6HR MIN TEMP:  -6; 6HR MAX TEMP:   8;

SPENCER        CLEAR    -13 -18  78 W8        30.52S WCI -30
6HR MIN TEMP: -14; 6HR MAX TEMP:   2;

STORM LAKE     CLEAR     -6 -11  77 NW8       30.52S WCI -21
$$

ABBREVIATIONS USED IN REMARKS
   TC - TEMPERATURE IN CELSIUS
  WCI - WIND CHILL INDEX
   HX - HEAT INDEX
  VSB - VISIBILITY



USA.gov is the U.S. government's official web portal to all federal, state and local government web resources and services.